�������l�o���
Date,Time,MP-1(��Sv/h),MP-2(��Sv/h),MP-3(��Sv/h),MP-4(��Sv/h),MP-5(��Sv/h),MP-6(��Sv/h),MP-7(��Sv/h),MP-8(��Sv/h),����,����(m/s),���J
2016/10/18,00:00,1.167,1.938,1.349,2.145,1.509,0.605,1.077,0.989,��쐼,4.5,��
2016/10/18,00:10,1.165,1.939,1.349,2.148,1.507,0.606,1.077,0.989,��쐼,3.8,��
2016/10/18,00:20,1.169,1.938,1.349,2.146,1.512,0.606,1.076,0.988,��,1.8,��
2016/10/18,00:30,1.167,1.937,1.346,2.147,1.508,0.607,1.076,0.988,��쓌,3.2,��
2016/10/18,00:40,1.167,1.939,1.345,2.146,1.510,0.607,1.075,0.990,��,4.9,��
2016/10/18,00:50,1.164,1.940,1.350,2.147,1.510,0.608,1.077,0.991,��쐼,3.8,��
2016/10/18,01:00,1.164,1.938,1.348,2.150,1.510,0.607,1.074,0.990,��,3.3,��
2016/10/18,01:10,1.165,1.942,1.347,2.146,1.510,0.604,1.073,0.989,��,5.0,��
2016/10/18,01:20,1.164,1.941,1.349,2.149,1.506,0.605,1.075,0.991,��쐼,5.5,��
2016/10/18,01:30,1.165,1.937,1.349,2.148,1.513,0.606,1.071,0.992,��쐼,5.0,��
2016/10/18,01:40,1.165,1.939,1.350,2.148,1.507,0.607,1.075,0.992,��쐼,5.5,��
2016/10/18,01:50,1.166,1.941,1.351,2.146,1.509,0.607,1.075,0.990,��쐼,4.4,��
2016/10/18,02:00,1.163,1.940,1.349,2.147,1.508,0.606,1.073,0.990,��쐼,4.1,��
2016/10/18,02:10,1.165,1.937,1.350,2.150,1.508,0.606,1.073,0.989,��쐼,4.4,��
2016/10/18,02:20,1.165,1.942,1.350,2.147,1.510,0.608,1.072,0.988,�쐼,4.6,��
2016/10/18,02:30,1.164,1.943,1.351,2.146,1.510,0.605,1.073,0.989,�쐼,3.8,��
2016/10/18,02:40,1.164,1.941,1.351,2.145,1.511,0.605,1.075,0.990,�쐼,4.9,��
2016/10/18,02:50,1.164,1.940,1.350,2.143,1.508,0.606,1.074,0.991,�쐼,4.4,��
2016/10/18,03:00,1.167,1.942,1.347,2.146,1.510,0.605,1.073,0.992,�쐼,3.1,��
2016/10/18,03:10,1.166,1.941,1.350,2.148,1.511,0.606,1.073,0.988,��,1.4,��
2016/10/18,03:20,1.166,1.936,1.349,2.145,1.510,0.605,1.073,0.989,�k��,2.6,��
2016/10/18,03:30,1.166,1.943,1.351,2.150,1.510,0.605,1.073,0.989,�k��,2.6,��
2016/10/18,03:40,1.163,1.940,1.350,2.148,1.511,0.604,1.072,0.988,�k��,3.9,��
2016/10/18,03:50,1.163,1.942,1.352,2.146,1.510,0.606,1.073,0.990,�k��,4.9,��
2016/10/18,04:00,1.163,1.941,1.349,2.145,1.507,0.607,1.073,0.990,�k��,5.2,��
2016/10/18,04:10,1.164,1.942,1.352,2.148,1.508,0.606,1.076,0.990,�k��,3.5,��
2016/10/18,04:20,1.164,1.939,1.351,2.148,1.509,0.607,1.073,0.991,�k��,3.5,��
2016/10/18,04:30,1.165,1.940,1.351,2.147,1.508,0.605,1.073,0.989,�k��,3.8,��
2016/10/18,04:40,1.163,1.942,1.349,2.148,1.509,0.605,1.074,0.992,���k��,5.5,��
2016/10/18,04:50,1.166,1.943,1.350,2.152,1.508,0.604,1.074,0.991,�k��,5.0,��
2016/10/18,05:00,1.166,1.940,1.350,2.146,1.511,0.605,1.073,0.990,�k��,4.2,��
2016/10/18,05:10,1.165,1.941,1.350,2.148,1.508,0.603,1.072,0.990,�k��,6.0,��
2016/10/18,05:20,1.167,1.940,1.349,2.148,1.510,0.605,1.074,0.989,�k��,6.3,��
2016/10/18,05:30,1.165,1.940,1.350,2.148,1.508,0.604,1.074,0.991,�k��,5.6,��
2016/10/18,05:40,1.166,1.939,1.351,2.149,1.509,0.604,1.076,0.991,�k��,5.5,��
2016/10/18,05:50,1.166,1.941,1.350,2.149,1.509,0.603,1.075,0.990,�k��,4.2,��
2016/10/18,06:00,1.163,1.937,1.349,2.148,1.506,0.607,1.074,0.988,�k��,3.8,��
2016/10/18,06:10,1.166,1.939,1.352,2.145,1.508,0.604,1.074,0.990,�k,3.1,��
2016/10/18,06:20,1.164,1.939,1.348,2.148,1.511,0.603,1.075,0.988,�k�k��,2.9,��
2016/10/18,06:30,1.164,1.942,1.349,2.147,1.511,0.604,1.075,0.989,�k�k��,2.2,��
2016/10/18,06:40,1.165,1.940,1.348,2.148,1.511,0.606,1.075,0.991,�k�k��,3.0,��
2016/10/18,06:50,1.164,1.940,1.348,2.147,1.509,0.604,1.073,0.988,�k�k��,2.8,��
2016/10/18,07:00,1.166,1.940,1.347,2.151,1.509,0.603,1.076,0.989,�k�k��,2.8,��
2016/10/18,07:10,1.164,1.941,1.350,2.146,1.506,0.603,1.077,0.991,�k,3.8,��
2016/10/18,07:20,1.164,1.942,1.350,2.151,1.511,0.602,1.075,0.991,�k,2.2,��
2016/10/18,07:30,1.164,1.939,1.349,2.150,1.511,0.604,1.077,0.991,�k,2.4,��
2016/10/18,07:40,1.165,1.941,1.339,2.150,1.506,0.606,1.074,0.990,�k,2.6,��
2016/10/18,07:50,1.163,1.935,1.338,2.146,1.509,0.604,1.078,0.991,�k,2.1,��
2016/10/18,08:00,1.164,1.939,1.342,2.148,1.511,0.606,1.075,0.990,�k,2.2,��
2016/10/18,08:10,1.162,1.940,1.344,2.150,1.508,0.606,1.076,0.991,�k�k��,2.3,��
2016/10/18,08:20,1.162,1.939,1.345,2.146,1.510,0.604,1.072,0.990,�k�k��,2.9,��
2016/10/18,08:30,1.161,1.939,1.345,2.148,1.509,0.604,1.072,0.991,�k�k��,3.1,��
2016/10/18,08:40,1.163,1.941,1.340,2.153,1.506,0.603,1.072,0.989,�k�k��,3.3,��
2016/10/18,08:50,1.159,1.938,1.340,2.148,1.506,0.604,1.071,0.990,�k�k��,3.0,��
2016/10/18,09:00,1.159,1.940,1.342,2.150,1.507,0.604,1.074,0.991,�k��,2.6,��
2016/10/18,09:10,1.160,1.938,1.343,2.151,1.504,0.600,1.072,0.987,���k��,1.9,��
2016/10/18,09:20,1.160,1.936,1.346,2.151,1.510,0.601,1.073,0.987,�k��,2.1,��
2016/10/18,09:30,1.163,1.937,1.343,2.151,1.510,0.600,1.075,0.989,�k��,2.0,��
2016/10/18,09:40,1.163,1.932,1.343,2.153,1.512,0.601,1.076,0.988,���k��,1.9,��
2016/10/18,09:50,1.161,1.929,1.345,2.152,1.508,0.602,1.075,0.987,���k��,1.4,��
2016/10/18,10:00,1.161,1.932,1.342,2.152,1.511,0.602,1.076,0.987,�k��,1.7,��
2016/10/18,10:10,1.160,1.939,1.347,2.156,1.510,0.601,1.075,0.988,�k��,2.0,��
2016/10/18,10:20,1.153,1.941,1.348,2.152,1.511,0.602,1.076,0.986,���k��,1.3,��
2016/10/18,10:30,1.155,1.934,1.352,2.152,1.511,0.601,1.074,0.987,���k��,0.5,��
2016/10/18,10:40,1.153,1.939,1.350,2.152,1.514,0.603,1.076,0.987,���쓌,1.1,��
2016/10/18,10:50,1.159,1.941,1.350,2.153,1.513,0.602,1.076,0.986,-,CALM,��
2016/10/18,11:00,1.161,1.943,1.353,2.153,1.513,0.603,1.076,0.987,�k�k��,0.5,��
2016/10/18,11:10,1.162,1.942,1.352,2.154,1.514,0.603,1.078,0.987,�k�k��,1.5,��
2016/10/18,11:20,1.162,1.942,1.349,2.150,1.512,0.603,1.075,0.986,�k�k��,1.9,��
2016/10/18,11:30,1.164,1.946,1.354,2.154,1.513,0.604,1.077,0.988,�k��,2.1,��
2016/10/18,11:40,1.165,1.945,1.352,2.152,1.514,0.602,1.080,0.987,�k��,2.3,��
2016/10/18,11:50,1.164,1.944,1.355,2.156,1.516,0.602,1.077,0.988,�k��,3.0,��
2016/10/18,12:00,1.166,1.943,1.355,2.154,1.516,0.602,1.076,0.988,�k�k��,2.8,��
2016/10/18,12:10,1.166,1.947,1.356,2.157,1.517,0.603,1.077,0.990,�k�k��,2.7,��
2016/10/18,12:20,1.168,1.942,1.355,2.158,1.518,0.604,1.077,0.987,�k��,2.2,��
2016/10/18,12:30,1.168,1.943,1.359,2.157,1.516,0.603,1.077,0.990,�k��,2.6,��
2016/10/18,12:40,1.166,1.947,1.355,2.158,1.519,0.604,1.078,0.988,�k��,1.7,��
2016/10/18,12:50,1.167,1.945,1.357,2.157,1.519,0.603,1.078,0.988,�k�k��,2.1,��
2016/10/18,13:00,1.168,1.946,1.357,2.155,1.520,0.606,1.079,0.989,�k��,2.2,��
2016/10/18,13:10,1.166,1.948,1.357,2.158,1.520,0.606,1.079,0.989,�k�k��,2.1,��
2016/10/18,13:20,1.167,1.947,1.357,2.159,1.520,0.604,1.077,0.989,�k��,2.4,��
2016/10/18,13:30,1.163,1.948,1.354,2.159,1.520,0.606,1.078,0.987,�k��,2.0,��
2016/10/18,13:40,1.165,1.945,1.354,2.155,1.520,0.606,1.076,0.988,�k�k��,2.0,��
2016/10/18,13:50,1.165,1.949,1.357,2.157,1.523,0.605,1.078,0.988,�k��,1.6,��
2016/10/18,14:00,1.165,1.951,1.360,2.156,1.522,0.604,1.077,0.988,�k��,1.6,��
2016/10/18,14:10,1.163,1.951,1.359,2.156,1.519,0.606,1.079,0.988,�k�k��,2.2,��
2016/10/18,14:20,1.163,1.948,1.359,2.157,1.530,0.607,1.078,0.989,�k��,1.8,��
2016/10/18,14:30,1.162,1.952,1.358,2.155,1.522,0.607,1.079,0.987,�k�k��,2.6,��
2016/10/18,14:40,1.171,1.945,1.356,2.160,1.520,0.607,1.077,0.989,�k�k��,2.4,��
2016/10/18,14:50,1.169,1.949,1.355,2.159,1.524,0.606,1.079,0.990,�k�k��,2.3,��
2016/10/18,15:00,1.167,1.948,1.358,2.158,1.523,0.605,1.079,0.989,�k�k��,2.5,��
2016/10/18,15:10,1.167,1.949,1.357,2.157,1.519,0.607,1.077,0.990,�k�k��,3.1,��
2016/10/18,15:20,1.167,1.953,1.357,2.158,1.519,0.607,1.077,0.988,�k�k��,2.6,��
2016/10/18,15:30,1.167,1.953,1.353,2.158,1.522,0.606,1.076,0.988,�k�k��,3.0,��
2016/10/18,15:40,1.165,1.950,1.357,2.156,1.521,0.606,1.076,0.989,�k�k��,3.1,��
2016/10/18,15:50,1.171,1.946,1.358,2.161,1.519,0.608,1.076,0.988,�k�k��,2.5,��
2016/10/18,16:00,1.169,1.947,1.357,2.157,1.522,0.608,1.079,0.989,�k�k��,2.3,��
2016/10/18,16:10,1.170,1.950,1.356,2.160,1.521,0.607,1.080,0.988,�k,2.5,��
2016/10/18,16:20,1.168,1.949,1.356,2.159,1.521,0.609,1.077,0.989,�k,3.3,��
2016/10/18,16:30,1.169,1.951,1.359,2.156,1.523,0.609,1.080,0.986,�k,3.8,��
2016/10/18,16:40,1.172,1.952,1.359,2.157,1.525,0.607,1.078,0.990,�k,3.9,��
2016/10/18,16:50,1.171,1.953,1.360,2.158,1.523,0.607,1.077,0.992,�k,3.3,��
2016/10/18,17:00,1.171,1.956,1.361,2.156,1.524,0.608,1.078,0.990,�k,3.1,��
2016/10/18,17:10,1.169,1.956,1.359,2.157,1.523,0.607,1.078,0.992,�k�k��,3.3,��
2016/10/18,17:20,1.169,1.955,1.360,2.156,1.525,0.609,1.078,0.991,�k�k��,3.9,��
2016/10/18,17:30,1.170,1.952,1.361,2.156,1.522,0.608,1.077,0.990,�k�k��,4.2,��
2016/10/18,17:40,1.174,1.953,1.360,2.156,1.521,0.608,1.079,0.990,�k�k��,4.4,��
2016/10/18,17:50,1.172,1.952,1.360,2.157,1.522,0.608,1.076,0.991,�k�k��,3.6,��
2016/10/18,18:00,1.169,1.953,1.360,2.159,1.525,0.609,1.078,0.990,�k�k��,3.9,��
2016/10/18,18:10,1.168,1.956,1.360,2.154,1.522,0.609,1.079,0.991,�k�k��,4.1,��
2016/10/18,18:20,1.170,1.954,1.358,2.156,1.521,0.606,1.077,0.992,�k�k��,3.3,��
2016/10/18,18:30,1.170,1.953,1.356,2.158,1.524,0.609,1.079,0.993,�k��,2.4,��
2016/10/18,18:40,1.170,1.953,1.360,2.160,1.523,0.608,1.078,0.992,�k�k��,3.8,��
2016/10/18,18:50,1.170,1.953,1.359,2.160,1.521,0.607,1.077,0.989,�k�k��,3.2,��
2016/10/18,19:00,1.172,1.954,1.359,2.156,1.520,0.608,1.077,0.992,�k�k��,2.8,��
2016/10/18,19:10,1.170,1.952,1.358,2.154,1.523,0.608,1.078,0.994,�k�k��,2.7,��
2016/10/18,19:20,1.169,1.953,1.360,2.155,1.524,0.607,1.078,0.992,�k�k��,2.9,��
2016/10/18,19:30,1.171,1.954,1.359,2.157,1.523,0.607,1.077,0.990,�k�k��,2.4,��
2016/10/18,19:40,1.170,1.955,1.359,2.155,1.524,0.607,1.077,0.993,�k,2.4,��
2016/10/18,19:50,1.171,1.950,1.356,2.157,1.523,0.608,1.075,0.990,�k�k��,2.7,��
2016/10/18,20:00,1.169,1.951,1.357,2.156,1.522,0.608,1.077,0.993,�k�k��,2.6,��
2016/10/18,20:10,1.172,1.954,1.358,2.155,1.524,0.608,1.077,0.990,�k�k��,3.3,��
2016/10/18,20:20,1.168,1.954,1.359,2.156,1.525,0.609,1.077,0.990,�k�k��,3.8,��
2016/10/18,20:30,1.169,1.949,1.358,2.158,1.521,0.608,1.077,0.992,�k,3.2,��
2016/10/18,20:40,1.171,1.954,1.360,2.157,1.523,0.607,1.076,0.993,�k,3.4,��
2016/10/18,20:50,1.170,1.952,1.357,2.157,1.526,0.607,1.077,0.991,�k,2.3,��
2016/10/18,21:00,1.171,1.951,1.361,2.156,1.520,0.606,1.079,0.992,�k,3.3,��
2016/10/18,21:10,1.171,1.952,1.357,2.156,1.522,0.606,1.077,0.991,�k�k��,3.8,��
2016/10/18,21:20,1.171,1.950,1.357,2.155,1.522,0.607,1.077,0.991,�k,3.6,��
2016/10/18,21:30,1.170,1.952,1.360,2.156,1.523,0.608,1.077,0.990,�k�k��,4.2,��
2016/10/18,21:40,1.168,1.953,1.359,2.157,1.521,0.608,1.078,0.991,�k,4.4,��
2016/10/18,21:50,1.171,1.956,1.360,2.157,1.523,0.607,1.078,0.993,�k,4.6,��
2016/10/18,22:00,1.173,1.954,1.358,2.156,1.523,0.608,1.076,0.992,�k�k��,4.6,��
2016/10/18,22:10,1.170,1.951,1.358,2.157,1.523,0.607,1.077,0.989,�k,4.5,��
2016/10/18,22:20,1.167,1.953,1.359,2.158,1.524,0.608,1.075,0.993,�k,5.0,��
2016/10/18,22:30,1.170,1.953,1.359,2.157,1.523,0.607,1.075,0.992,�k,6.7,��
2016/10/18,22:40,1.172,1.952,1.360,2.158,1.521,0.606,1.076,0.992,�k,6.6,��
2016/10/18,22:50,1.172,1.956,1.359,2.161,1.523,0.606,1.075,0.991,�k�k��,6.9,��
2016/10/18,23:00,1.170,1.952,1.359,2.158,1.522,0.607,1.075,0.990,�k,7.1,��
2016/10/18,23:10,1.170,1.953,1.357,2.154,1.525,0.607,1.076,0.991,�k,6.6,��
2016/10/18,23:20,1.169,1.952,1.358,2.157,1.520,0.607,1.075,0.991,�k,5.5,��
2016/10/18,23:30,1.169,1.953,1.359,2.156,1.522,0.606,1.074,0.992,�k,6.0,��
2016/10/18,23:40,1.168,1.954,1.359,2.156,1.522,0.604,1.072,0.992,�k,7.4,��
2016/10/18,23:50,1.170,1.950,1.358,2.155,1.522,0.605,1.075,0.989,�k,7.1,��
